{"data":{"norad_id":48217,"epoch":"2026-09-20T00:07:47.407584Z","epoch_age_seconds":60970,"freshness":"FRESH","line1":"1 48217U 21031H   26263.00540981  .00000177  00000+0  44242-3 0  9998","line2":"2 48217  87.8904 270.7891 0001569  87.4405 272.6905 13.14501929260681","mean_motion":13.14501929,"eccentricity":0.0001569,"inclination_deg":87.8904,"raan_deg":270.7891,"arg_perigee_deg":87.4405,"mean_anomaly_deg":272.6905,"bstar":0.00044242,"rev_number":26068,"period_min":109.54719565117,"perigee_km":1204.6037860319,"apogee_km":1206.983623487,"semimajor_km":7583.9307047594,"source":"CELESTRAK","updated_at":"2026-09-20T09:00:44.593593Z"}}